Tracking 18840 objects as of 19-November-2017
HD Live streaming from Space Station
objects crossing your sky now

OPS 0441

Track OPS 0441 now!
OPS 0441 is classified as:


NORAD ID: 14675
Int'l Code: 1984-009A
Perigee: 31,453.4 km
Apogee: 40,077.0 km
Inclination: 7.4 °
Period: 1,434.6 minutes
Semi major axis: 42136 km
RCS: Unknown
Launch date: January 31, 1984
Source: United States (US)
Launch site: AIR FORCE EASTERN TEST RANGE (AFETR)
aabbcc
Your satellite tracking list
Your tracking list is empty




NASA's NSSDC Master Catalog

Two Line Element Set (TLE):
1 14675U 84009A   17300.73770379 0.00000000  00000-0  00000-0 0    01
2 14675   7.4077 349.0328 1023303 352.8087   5.8486  1.00373793    08
Source of the keplerian elements: McCants